QPF
0.02 0.02 0.01 0.02 0.02 0.01 0.01 0.01 0.01 0.01 0.01 0.00 0.00 0.00 0.00 0.01 0.02 0.04 0.07 0.10 0.15 0.15 0.12 0.12 0.10 0.09 0.07 0.06 0.06 0.07 0.07 0.07 0.09 0.07 0.05 0.04 0.04 0.03 0.04 0.04 0.04 0.05 0.04
0.02 0.02 0.01 0.02 0.02 0.01 0.01 0.01 0.01 0.01 0.00 0.00 0.00 0.00 0.00 0.01 0.01 0.02 0.04 0.06 0.11 0.12 0.11 0.10 0.08 0.06 0.04 0.04 0.03 0.03 0.04 0.04 0.05 0.04 0.04 0.04 0.03 0.03 0.04 0.04 0.03 0.03 0.04
0.03 0.02 0.02 0.03 0.02 0.01 0.00 0.01 0.01 0.01 0.00 0.01 0.01 0.00 0.00 0.01 0.01 0.01 0.01 0.03 0.04 0.07 0.08 0.08 0.07 0.06 0.05 0.04 0.03 0.03 0.03 0.03 0.03 0.04 0.04 0.04 0.04 0.03 0.04 0.04 0.03 0.04 0.04
0.04 0.03 0.02 0.03 0.03 0.01 0.01 0.01 0.01 0.01 0.01 0.01 0.01 0.01 0.00 0.00 0.00 0.00 0.01 0.01 0.02 0.02 0.03 0.03 0.04 0.04 0.04 0.04 0.04 0.04 0.04 0.04 0.04 0.03 0.04 0.04 0.04 0.04 0.04 0.05 0.05 0.06 0.06
0.09 0.06 0.04 0.03 0.04 0.02 0.02 0.01 0.02 0.03 0.02 0.02 0.02 0.01 0.01 0.00 0.00 0.00 0.00 0.01 0.01 0.01 0.01 0.01 0.02 0.03 0.04 0.05 0.06 0.08 0.08 0.06 0.05 0.04 0.03 0.04 0.04 0.04 0.04 0.05 0.07 0.09 0.10
0.15 0.13 0.10 0.06 0.04 0.03 0.03 0.03 0.03 0.03 0.03 0.02 0.02 0.01 0.01 0.01 0.00 0.00 0.00 0.00 0.00 0.00 0.01 0.01 0.01 0.02 0.05 0.09 0.11 0.12 0.12 0.11 0.08 0.06 0.04 0.03 0.04 0.04 0.05 0.05 0.05 0.07 0.09
0.09 0.09 0.09 0.07 0.06 0.05 0.05 0.04 0.04 0.03 0.03 0.02 0.02 0.01 0.01 0.01 0.00 0.00 0.00 0.00 0.00 0.01 0.02 0.02 0.02 0.02 0.04 0.07 0.09 0.10 0.11 0.12 0.12 0.10 0.09 0.07 0.06 0.06 0.06 0.05 0.04 0.05 0.06
0.04 0.04 0.04 0.04 0.05 0.06 0.06 0.05 0.05 0.05 0.05 0.04 0.04 0.02 0.01 0.01 0.01 0.00 0.00 0.00 0.00 0.00 0.01 0.01 0.02 0.02 0.03 0.04 0.04 0.06 0.07 0.11 0.14 0.15 0.13 0.11 0.10 0.07 0.05 0.03 0.03 0.03 0.05
0.03 0.03 0.03 0.02 0.03 0.04 0.04 0.04 0.04 0.05 0.05 0.06 0.07 0.05 0.02 0.01 0.00 0.00 0.00 0.00 0.00 0.00 0.01 0.01 0.01 0.01 0.02 0.03 0.03 0.03 0.05 0.08 0.14 0.18 0.17 0.15 0.11 0.07 0.05 0.03 0.02 0.03 0.04
0.03 0.03 0.03 0.03 0.03 0.03 0.03 0.05 0.05 0.05 0.05 0.05 0.05 0.04 0.02 0.01 0.00 0.00 0.00 0.00 0.00 0.00 0.00 0.01 0.01 0.00 0.00 0.01 0.01 0.02 0.02 0.04 0.07 0.10 0.11 0.10 0.09 0.08 0.06 0.04 0.04 0.04 0.03
0.02 0.04 0.05 0.05 0.05 0.04 0.04 0.04 0.05 0.05 0.05 0.05 0.05 0.04 0.03 0.02 0.02 0.02 0.01 0.01 0.01 0.00 0.00 0.00 0.01 0.01 0.00 0.01 0.01 0.01 0.01 0.02 0.02 0.03 0.04 0.05 0.04 0.06 0.09 0.09 0.07 0.06 0.03
0.01 0.02 0.03 0.04 0.04 0.03 0.03 0.04 0.05 0.06 0.07 0.06 0.05 0.04 0.04 0.02 0.02 0.01 0.01 0.00 0.00 0.00 0.00 0.00 0.00 0.00 0.01 0.01 0.01 0.00 0.01 0.01 0.02 0.02 0.02 0.02 0.02 0.03 0.03 0.06 0.08 0.08 0.06
0.01 0.01 0.02 0.04 0.04 0.03 0.02 0.03 0.03 0.04 0.05 0.05 0.04 0.03 0.03 0.02 0.02 0.02 0.01 0.01 0.01 0.01 0.00 0.00 0.00 0.00 0.00 0.01 0.01 0.01 0.01 0.02 0.02 0.02 0.02 0.01 0.02 0.02 0.02 0.03 0.04 0.05 0.05
0.01 0.01 0.02 0.03 0.03 0.03 0.03 0.02 0.03 0.03 0.03 0.04 0.04 0.04 0.03 0.03 0.03 0.02 0.02 0.03 0.03 0.02 0.02 0.01 0.01 0.00 0.00 0.01 0.01 0.01 0.01 0.01 0.02 0.03 0.02 0.02 0.02 0.02 0.05 0.04 0.04 0.03 0.03
0.01 0.02 0.02 0.03 0.03 0.03 0.03 0.03 0.02 0.02 0.02 0.02 0.03 0.04 0.04 0.04 0.05 0.05 0.05 0.04 0.04 0.03 0.02 0.01 0.01 0.01 0.00 0.00 0.01 0.01 0.01 0.01 0.01 0.02 0.03 0.03 0.03 0.04 0.13 0.05 0.03 0.04 0.03
0.03 0.04 0.03 0.03 0.03 0.04 0.03 0.03 0.03 0.03 0.02 0.02 0.02 0.02 0.03 0.03 0.03 0.03 0.04 0.04 0.04 0.03 0.02 0.01 0.01 0.01 0.00 0.00 0.00 0.01 0.01 0.01 0.01 0.02 0.02 0.03 0.04 0.05 0.10 0.08 0.04 0.03 0.04
0.03 0.03 0.03 0.03 0.04 0.04 0.04 0.03 0.04 0.04 0.03 0.03 0.02 0.02 0.02 0.03 0.02 0.02 0.02 0.02 0.02 0.02 0.01 0.01 0.01 0.01 0.00 0.00 0.00 0.00 0.00 0.01 0.01 0.02 0.02 0.03 0.03 0.05 0.07 0.13 0.09 0.04 0.04
0.02 0.02 0.02 0.03 0.03 0.03 0.03 0.02 0.03 0.03 0.03 0.04 0.03 0.02 0.02 0.03 0.02 0.02 0.02 0.02 0.01 0.01 0.02 0.01 0.02 0.01 0.01 0.00 0.00 0.00 0.01 0.01 0.01 0.02 0.03 0.03 0.04 0.04 0.07 0.11 0.12 0.09 0.07
0.02 0.02 0.02 0.01 0.02 0.02 0.02 0.02 0.02 0.02 0.04 0.04 0.04 0.03 0.02 0.03 0.03 0.02 0.01 0.02 0.02 0.02 0.02 0.01 0.01 0.01 0.01 0.01 0.01 0.01 0.02 0.01 0.01 0.02 0.02 0.03 0.05 0.06 0.08 0.09 0.10 0.11 0.10
0.02 0.02 0.02 0.01 0.01 0.02 0.03 0.03 0.02 0.01 0.02 0.03 0.04 0.04 0.03 0.03 0.03 0.03 0.02 0.02 0.02 0.01 0.01 0.01 0.01 0.01 0.01 0.01 0.01 0.02 0.02 0.02 0.02 0.02 0.02 0.02 0.03 0.05 0.08 0.10 0.10 0.11 0.09
0.02 0.02 0.02 0.02 0.02 0.02 0.02 0.02 0.02 0.01 0.01 0.01 0.02 0.02 0.02 0.03 0.03 0.03 0.03 0.02 0.02 0.01 0.01 0.01 0.01 0.01 0.01 0.01 0.01 0.02 0.02 0.03 0.03 0.03 0.02 0.02 0.03 0.03 0.04 0.07 0.09 0.09 0.08
0.03 0.02 0.01 0.02 0.02 0.02 0.02 0.02 0.02 0.01 0.01 0.02 0.02 0.02 0.02 0.02 0.03 0.04 0.04 0.03 0.03 0.02 0.01 0.01 0.01 0.01 0.02 0.02 0.02 0.03 0.03 0.04 0.03 0.02 0.03 0.03 0.03 0.03 0.03 0.03 0.05 0.06 0.05
0.04 0.03 0.03 0.02 0.02 0.02 0.02 0.02 0.02 0.02 0.01 0.02 0.02 0.02 0.03 0.02 0.02 0.03 0.04 0.03 0.02 0.02 0.01 0.01 0.01 0.01 0.01 0.02 0.03 0.04 0.06 0.06 0.05 0.04 0.03 0.03 0.03 0.02 0.01 0.01 0.03 0.03 0.03
0.03 0.03 0.03 0.04 0.04 0.03 0.04 0.03 0.03 0.02 0.02 0.02 0.02 0.02 0.02 0.02 0.02 0.03 0.04 0.04 0.02 0.01 0.01 0.01 0.01 0.01 0.01 0.01 0.02 0.04 0.05 0.07 0.07 0.07 0.05 0.03 0.03 0.02 0.01 0.01 0.01 0.01 0.02
0.03 0.02 0.01 0.01 0.01 0.02 0.02 0.03 0.03 0.04 0.03 0.03 0.02 0.02 0.03 0.02 0.02 0.03 0.04 0.05 0.04 0.02 0.02 0.01 0.01 0.02 0.03 0.03 0.03 0.02 0.03 0.05 0.07 0.07 0.05 0.04 0.03 0.02 0.01 0.00 0.00 0.01 0.01
0.04 0.04 0.03 0.01 0.01 0.01 0.01 0.01 0.02 0.02 0.03 0.02 0.02 0.01 0.02 0.02 0.03 0.03 0.03 0.04 0.04 0.03 0.02 0.02 0.02 0.03 0.03 0.03 0.03 0.03 0.02 0.03 0.04 0.06 0.07 0.06 0.04 0.03 0.02 0.01 0.00 0.00 0.01
MSLP
1014.22 1014.01 1013.72 1013.39 1013.08 1012.82 1012.65 1012.57 1012.59 1012.67 1012.79 1012.89 1012.97 1013.00 1012.97 1012.89 1012.76 1012.59 1012.39 1012.16 1011.91 1011.66 1011.42 1011.23 1011.12 1011.10 1011.18 1011.35 1011.60 1011.88 1012.17 1012.43 1012.64 1012.78 1012.88 1012.95 1013.01 1013.09 1013.19 1013.31 1013.44 1013.56 1013.65
1014.73 1014.48 1014.17 1013.85 1013.56 1013.35 1013.23 1013.21 1013.28 1013.41 1013.56 1013.69 1013.79 1013.83 1013.82 1013.76 1013.66 1013.54 1013.39 1013.22 1013.04 1012.86 1012.68 1012.53 1012.41 1012.35 1012.36 1012.42 1012.52 1012.65 1012.78 1012.89 1012.96 1013.01 1013.03 1013.05 1013.09 1013.14 1013.22 1013.32 1013.41 1013.49 1013.55
1015.23 1014.94 1014.62 1014.32 1014.07 1013.91 1013.85 1013.89 1014.01 1014.17 1014.35 1014.50 1014.61 1014.67 1014.68 1014.65 1014.59 1014.51 1014.41 1014.30 1014.18 1014.04 1013.90 1013.76 1013.64 1013.54 1013.47 1013.43 1013.41 1013.41 1013.40 1013.38 1013.35 1013.31 1013.27 1013.24 1013.24 1013.27 1013.32 1013.38 1013.44 1013.47 1013.48
1015.72 1015.42 1015.11 1014.83 1014.63 1014.52 1014.51 1014.60 1014.75 1014.94 1015.12 1015.29 1015.41 1015.49 1015.52 1015.52 1015.50 1015.46 1015.40 1015.33 1015.24 1015.12 1014.99 1014.85 1014.71 1014.57 1014.45 1014.34 1014.23 1014.13 1014.02 1013.91 1013.80 1013.69 1013.59 1013.52 1013.48 1013.47 1013.48 1013.50 1013.51 1013.50 1013.45
1016.23 1015.93 1015.65 1015.42 1015.26 1015.20 1015.23 1015.34 1015.50 1015.68 1015.86 1016.02 1016.15 1016.24 1016.30 1016.33 1016.34 1016.34 1016.31 1016.25 1016.17 1016.06 1015.93 1015.77 1015.61 1015.44 1015.27 1015.11 1014.95 1014.79 1014.63 1014.46 1014.29 1014.13 1013.99 1013.88 1013.79 1013.74 1013.71 1013.68 1013.63 1013.56 1013.46
1016.76 1016.49 1016.24 1016.06 1015.96 1015.93 1015.98 1016.09 1016.23 1016.39 1016.54 1016.68 1016.80 1016.90 1016.98 1017.04 1017.09 1017.11 1017.11 1017.06 1016.98 1016.85 1016.70 1016.52 1016.33 1016.14 1015.95 1015.77 1015.59 1015.40 1015.20 1015.00 1014.80 1014.60 1014.43 1014.27 1014.15 1014.05 1013.96 1013.88 1013.78 1013.65 1013.51
1017.31 1017.07 1016.89 1016.76 1016.70 1016.70 1016.75 1016.84 1016.94 1017.05 1017.16 1017.26 1017.36 1017.47 1017.57 1017.66 1017.74 1017.79 1017.80 1017.76 1017.67 1017.52 1017.34 1017.14 1016.93 1016.72 1016.53 1016.33 1016.14 1015.95 1015.74 1015.53 1015.30 1015.08 1014.86 1014.67 1014.50 1014.35 1014.21 1014.08 1013.93 1013.76 1013.57
1017.86 1017.68 1017.55 1017.48 1017.46 1017.47 1017.52 1017.57 1017.62 1017.68 1017.73 1017.79 1017.87 1017.97 1018.09 1018.21 1018.32 1018.39 1018.42 1018.38 1018.27 1018.11 1017.91 1017.68 1017.45 1017.23 1017.03 1016.83 1016.64 1016.44 1016.23 1016.00 1015.75 1015.50 1015.25 1015.02 1014.81 1014.61 1014.43 1014.25 1014.06 1013.85 1013.63
1018.39 1018.28 1018.21 1018.19 1018.20 1018.23 1018.26 1018.28 1018.28 1018.27 1018.27 1018.29 1018.35 1018.45 1018.58 1018.72 1018.86 1018.95 1018.98 1018.94 1018.83 1018.65 1018.43 1018.18 1017.94 1017.71 1017.49 1017.29 1017.09 1016.87 1016.64 1016.39 1016.11 1015.82 1015.54 1015.27 1015.03 1014.80 1014.58 1014.37 1014.14 1013.91 1013.67
1018.88 1018.83 1018.82 1018.85 1018.89 1018.93 1018.96 1018.95 1018.91 1018.85 1018.81 1018.80 1018.84 1018.94 1019.07 1019.23 1019.38 1019.49 1019.53 1019.49 1019.37 1019.17 1018.93 1018.67 1018.41 1018.16 1017.93 1017.70 1017.47 1017.23 1016.96 1016.67 1016.35 1016.03 1015.71 1015.41 1015.14 1014.89 1014.65 1014.42 1014.18 1013.93 1013.67
1019.29 1019.29 1019.34 1019.42 1019.50 1019.56 1019.58 1019.56 1019.50 1019.43 1019.36 1019.34 1019.37 1019.46 1019.60 1019.77 1019.92 1020.03 1020.07 1020.02 1019.89 1019.68 1019.43 1019.15 1018.87 1018.60 1018.33 1018.07 1017.80 1017.50 1017.18 1016.83 1016.47 1016.11 1015.76 1015.44 1015.15 1014.89 1014.64 1014.40 1014.15 1013.89 1013.61
1019.60 1019.66 1019.76 1019.88 1020.00 1020.09 1020.13 1020.12 1020.06 1019.98 1019.92 1019.89 1019.93 1020.02 1020.16 1020.32 1020.47 1020.57 1020.60 1020.53 1020.39 1020.17 1019.90 1019.61 1019.31 1019.01 1018.70 1018.39 1018.05 1017.69 1017.30 1016.89 1016.48 1016.08 1015.71 1015.38 1015.09 1014.83 1014.59 1014.35 1014.09 1013.82 1013.52
1019.80 1019.91 1020.06 1020.23 1020.38 1020.50 1020.57 1020.58 1020.55 1020.50 1020.45 1020.45 1020.49 1020.59 1020.72 1020.87 1021.00 1021.08 1021.08 1021.00 1020.84 1020.61 1020.34 1020.03 1019.71 1019.38 1019.03 1018.65 1018.25 1017.82 1017.36 1016.88 1016.42 1015.98 1015.60 1015.27 1014.99 1014.74 1014.51 1014.28 1014.01 1013.72 1013.39
1019.90 1020.06 1020.26 1020.46 1020.65 1020.81 1020.91 1020.96 1020.96 1020.95 1020.94 1020.96 1021.02 1021.13 1021.25 1021.38 1021.49 1021.53 1021.51 1021.41 1021.23 1021.00 1020.72 1020.41 1020.07 1019.71 1019.32 1018.89 1018.42 1017.92 1017.39 1016.85 1016.35 1015.88 1015.49 1015.16 1014.89 1014.66 1014.44 1014.21 1013.93 1013.61 1013.24
1019.92 1020.14 1020.37 1020.61 1020.83 1021.01 1021.15 1021.23 1021.28 1021.31 1021.34 1021.40 1021.48 1021.59 1021.71 1021.81 1021.89 1021.90 1021.85 1021.73 1021.55 1021.31 1021.04 1020.73 1020.39 1020.01 1019.59 1019.12 1018.60 1018.03 1017.44 1016.86 1016.31 1015.83 1015.42 1015.10 1014.84 1014.62 1014.40 1014.16 1013.86 1013.50 1013.09
1019.91 1020.17 1020.44 1020.70 1020.94 1021.14 1021.30 1021.42 1021.50 1021.57 1021.64 1021.73 1021.83 1021.94 1022.05 1022.14 1022.19 1022.18 1022.10 1021.97 1021.79 1021.56 1021.30 1021.01 1020.68 1020.31 1019.87 1019.37 1018.81 1018.20 1017.57 1016.94 1016.36 1015.86 1015.44 1015.11 1014.85 1014.62 1014.39 1014.12 1013.78 1013.38 1012.92
1019.89 1020.19 1020.49 1020.76 1021.01 1021.22 1021.39 1021.52 1021.63 1021.73 1021.84 1021.95 1022.07 1022.18 1022.28 1022.35 1022.38 1022.35 1022.26 1022.13 1021.96 1021.75 1021.52 1021.26 1020.96 1020.60 1020.17 1019.66 1019.08 1018.44 1017.78 1017.12 1016.51 1015.98 1015.55 1015.20 1014.91 1014.66 1014.40 1014.09 1013.70 1013.25 1012.74
1019.87 1020.22 1020.54 1020.83 1021.08 1021.28 1021.45 1021.59 1021.71 1021.83 1021.95 1022.08 1022.20 1022.32 1022.42 1022.47 1022.48 1022.44 1022.35 1022.22 1022.07 1021.90 1021.70 1021.48 1021.22 1020.89 1020.48 1019.98 1019.40 1018.75 1018.07 1017.39 1016.76 1016.20 1015.74 1015.35 1015.03 1014.73 1014.42 1014.05 1013.61 1013.10 1012.54
1019.85 1020.25 1020.60 1020.90 1021.14 1021.34 1021.50 1021.63 1021.76 1021.88 1022.01 1022.15 1022.28 1022.40 1022.48 1022.53 1022.52 1022.47 1022.38 1022.27 1022.14 1022.00 1021.85 1021.67 1021.45 1021.16 1020.78 1020.31 1019.74 1019.10 1018.41 1017.73 1017.08 1016.49 1015.99 1015.56 1015.18 1014.82 1014.44 1014.01 1013.50 1012.93 1012.32
1019.82 1020.27 1020.65 1020.96 1021.21 1021.40 1021.55 1021.68 1021.80 1021.93 1022.06 1022.20 1022.33 1022.44 1022.52 1022.55 1022.53 1022.48 1022.39 1022.28 1022.17 1022.06 1021.94 1021.81 1021.63 1021.38 1021.05 1020.61 1020.07 1019.45 1018.77 1018.09 1017.43 1016.82 1016.28 1015.80 1015.37 1014.94 1014.48 1013.98 1013.40 1012.77 1012.12
1019.75 1020.25 1020.67 1021.00 1021.26 1021.45 1021.61 1021.74 1021.86 1021.98 1022.12 1022.26 1022.38 1022.49 1022.55 1022.57 1022.54 1022.47 1022.38 1022.27 1022.17 1022.08 1021.99 1021.88 1021.74 1021.54 1021.24 1020.84 1020.34 1019.75 1019.11 1018.44 1017.79 1017.17 1016.60 1016.08 1015.59 1015.09 1014.57 1013.99 1013.36 1012.67 1011.96
1019.61 1020.16 1020.62 1020.99 1021.27 1021.49 1021.65 1021.79 1021.93 1022.06 1022.20 1022.33 1022.46 1022.55 1022.60 1022.61 1022.56 1022.48 1022.37 1022.26 1022.15 1022.06 1021.98 1021.90 1021.78 1021.60 1021.35 1020.99 1020.54 1020.00 1019.40 1018.76 1018.13 1017.52 1016.95 1016.40 1015.87 1015.33 1014.75 1014.11 1013.41 1012.67 1011.92
1019.41 1020.01 1020.52 1020.92 1021.24 1021.49 1021.68 1021.84 1021.99 1022.14 1022.29 1022.43 1022.55 1022.64 1022.68 1022.67 1022.60 1022.50 1022.37 1022.24 1022.12 1022.02 1021.93 1021.85 1021.75 1021.60 1021.37 1021.06 1020.66 1020.18 1019.63 1019.05 1018.46 1017.88 1017.32 1016.78 1016.23 1015.66 1015.04 1014.37 1013.63 1012.84 1012.04
1019.16 1019.81 1020.36 1020.81 1021.16 1021.45 1021.67 1021.87 1022.04 1022.21 1022.38 1022.53 1022.65 1022.74 1022.77 1022.74 1022.66 1022.54 1022.39 1022.24 1022.10 1021.98 1021.88 1021.78 1021.68 1021.54 1021.34 1021.07 1020.72 1020.30 1019.82 1019.31 1018.78 1018.26 1017.74 1017.22 1016.69 1016.12 1015.49 1014.79 1014.02 1013.20 1012.35
1018.92 1019.60 1020.18 1020.66 1021.06 1021.37 1021.63 1021.85 1022.06 1022.25 1022.43 1022.60 1022.73 1022.82 1022.85 1022.82 1022.73 1022.60 1022.44 1022.26 1022.10 1021.96 1021.85 1021.74 1021.63 1021.49 1021.31 1021.07 1020.77 1020.41 1020.00 1019.55 1019.10 1018.64 1018.19 1017.72 1017.22 1016.68 1016.07 1015.38 1014.60 1013.76 1012.87
1018.75 1019.44 1020.03 1020.53 1020.94 1021.27 1021.56 1021.80 1022.02 1022.24 1022.44 1022.62 1022.76 1022.87 1022.91 1022.89 1022.81 1022.68 1022.52 1022.34 1022.17 1022.02 1021.88 1021.76 1021.64 1021.50 1021.33 1021.11 1020.84 1020.53 1020.18 1019.80 1019.42 1019.04 1018.65 1018.25 1017.81 1017.32 1016.75 1016.08 1015.32 1014.47 1013.58
Thickness
5716 5715 5715 5714 5713 5713 5713 5712 5711 5711 5710 5710 5709 5708 5708 5707 5707 5708 5708 5709 5710 5710 5711 5710 5709 5709 5708 5708 5708 5708 5708 5708 5708 5709 5709 5709 5709 5709 5709 5710 5710 5710 5710
5713 5712 5711 5710 5710 5709 5709 5708 5707 5706 5705 5705 5704 5703 5703 5702 5702 5702 5702 5703 5704 5704 5705 5705 5705 5704 5704 5703 5703 5703 5703 5703 5703 5704 5704 5704 5704 5704 5705 5705 5705 5706 5706
5710 5709 5708 5707 5706 5705 5705 5704 5703 5702 5701 5700 5699 5698 5697 5697 5697 5697 5697 5698 5698 5698 5699 5699 5700 5699 5699 5699 5698 5698 5698 5698 5698 5699 5699 5700 5700 5700 5700 5700 5701 5701 5701
5706 5705 5704 5703 5702 5701 5701 5699 5698 5697 5695 5694 5694 5693 5693 5692 5692 5692 5692 5692 5692 5692 5693 5693 5694 5694 5694 5694 5694 5694 5693 5693 5693 5694 5694 5694 5695 5695 5695 5696 5696 5696 5696
5702 5701 5700 5699 5698 5697 5696 5695 5693 5692 5690 5689 5689 5688 5688 5687 5687 5687 5687 5686 5686 5686 5687 5687 5688 5688 5688 5689 5689 5689 5689 5689 5689 5689 5689 5689 5689 5690 5690 5691 5691 5692 5692
5698 5697 5696 5695 5693 5692 5691 5690 5688 5687 5686 5684 5685 5683 5682 5682 5682 5682 5681 5680 5680 5680 5681 5681 5681 5682 5682 5683 5683 5684 5684 5684 5684 5684 5684 5684 5685 5685 5685 5686 5686 5686 5687
5694 5693 5691 5690 5688 5687 5685 5685 5684 5682 5680 5680 5678 5676 5676 5677 5677 5676 5676 5675 5674 5674 5675 5675 5675 5675 5676 5677 5678 5678 5679 5679 5680 5680 5680 5680 5680 5680 5680 5681 5681 5681 5682
5690 5688 5687 5685 5684 5682 5681 5680 5679 5677 5675 5674 5672 5669 5667 5667 5669 5671 5669 5669 5668 5669 5669 5669 5668 5669 5669 5670 5671 5672 5674 5675 5675 5675 5675 5675 5675 5675 5675 5675 5676 5676 5677
5685 5684 5682 5681 5679 5678 5676 5675 5674 5673 5669 5668 5668 5665 5661 5657 5659 5662 5662 5662 5662 5662 5662 5662 5663 5663 5663 5664 5665 5666 5668 5669 5670 5670 5670 5669 5670 5670 5670 5670 5671 5671 5672
5680 5679 5678 5676 5675 5673 5672 5671 5670 5668 5667 5664 5663 5662 5660 5657 5654 5653 5655 5655 5655 5655 5655 5656 5656 5657 5658 5659 5659 5660 5662 5663 5664 5664 5664 5664 5664 5664 5665 5665 5666 5666 5667
5675 5674 5673 5672 5670 5669 5668 5666 5665 5664 5662 5660 5658 5657 5655 5652 5650 5648 5646 5648 5649 5649 5650 5650 5650 5651 5652 5653 5654 5655 5656 5657 5658 5658 5658 5658 5659 5660 5660 5660 5661 5662 5662
5670 5669 5668 5667 5666 5664 5663 5662 5660 5659 5657 5655 5654 5653 5651 5648 5645 5643 5640 5640 5640 5643 5644 5645 5645 5646 5647 5648 5649 5649 5650 5651 5652 5652 5652 5653 5654 5654 5655 5656 5656 5657 5657
5663 5664 5663 5662 5661 5659 5658 5657 5655 5653 5652 5650 5648 5647 5646 5645 5643 5640 5637 5635 5634 5636 5638 5640 5641 5641 5642 5642 5643 5644 5645 5646 5646 5647 5648 5648 5648 5649 5650 5651 5652 5652 5653
5659 5659 5658 5657 5656 5654 5653 5652 5650 5648 5646 5645 5643 5642 5640 5639 5638 5636 5634 5631 5629 5628 5630 5632 5635 5635 5636 5637 5638 5639 5640 5640 5641 5642 5643 5643 5644 5644 5645 5646 5646 5647 5647
5654 5653 5652 5651 5650 5648 5647 5646 5643 5642 5640 5639 5637 5636 5634 5633 5633 5632 5630 5628 5625 5622 5623 5626 5627 5630 5630 5631 5632 5633 5634 5634 5635 5636 5637 5638 5639 5639 5639 5640 5641 5642 5642
5648 5647 5646 5644 5643 5642 5641 5639 5638 5636 5634 5633 5631 5629 5628 5627 5626 5626 5624 5622 5621 5619 5617 5619 5620 5622 5623 5625 5626 5627 5628 5629 5629 5631 5631 5632 5633 5634 5634 5634 5635 5636 5636
5642 5641 5639 5638 5636 5635 5633 5632 5630 5629 5627 5625 5624 5623 5622 5621 5620 5618 5617 5616 5614 5613 5611 5612 5613 5615 5615 5617 5619 5620 5622 5623 5624 5625 5626 5626 5627 5628 5628 5629 5630 5631 5631
5635 5634 5632 5631 5629 5628 5626 5624 5623 5621 5619 5618 5617 5616 5615 5615 5613 5612 5610 5610 5608 5606 5605 5605 5606 5607 5608 5609 5611 5612 5614 5616 5617 5618 5619 5620 5621 5621 5623 5623 5624 5624 5625
5628 5627 5625 5624 5622 5620 5618 5617 5615 5614 5613 5612 5611 5610 5609 5608 5606 5605 5604 5603 5602 5601 5599 5598 5599 5599 5600 5601 5602 5604 5606 5607 5609 5611 5612 5613 5614 5615 5616 5617 5618 5618 5619
5620 5619 5618 5617 5615 5613 5611 5609 5608 5606 5605 5604 5604 5603 5603 5602 5601 5599 5598 5596 5595 5593 5592 5591 5591 5591 5592 5593 5594 5595 5597 5599 5601 5603 5604 5605 5607 5608 5609 5610 5611 5611 5612
5612 5611 5609 5608 5607 5605 5603 5601 5600 5599 5597 5596 5596 5595 5595 5596 5596 5594 5593 5590 5588 5586 5585 5583 5583 5583 5584 5584 5586 5587 5589 5591 5593 5594 5595 5596 5597 5600 5601 5602 5603 5605 5606
5603 5602 5601 5599 5598 5597 5596 5594 5592 5590 5588 5587 5587 5587 5587 5587 5587 5586 5586 5585 5584 5582 5579 5578 5577 5577 5578 5579 5579 5580 5580 5581 5584 5586 5586 5587 5589 5590 5593 5595 5597 5598 5599
5595 5593 5592 5590 5589 5588 5588 5586 5584 5582 5579 5578 5578 5577 5578 5579 5578 5577 5577 5577 5576 5576 5577 5575 5573 5573 5573 5573 5572 5572 5572 5574 5576 5578 5577 5579 5580 5582 5585 5587 5589 5590 5592
5586 5584 5583 5581 5580 5580 5579 5578 5576 5573 5571 5570 5569 5569 5568 5568 5569 5568 5568 5567 5567 5567 5568 5568 5568 5569 5569 5568 5567 5567 5567 5566 5567 5569 5570 5571 5573 5574 5577 5579 5581 5582 5584
5576 5575 5573 5572 5570 5570 5569 5569 5567 5564 5562 5561 5561 5560 5560 5559 5561 5560 5559 5558 5558 5558 5559 5560 5560 5560 5561 5560 5559 5558 5557 5557 5559 5561 5561 5562 5565 5566 5568 5571 5573 5574 5576
5567 5566 5564 5562 5561 5560 5560 5559 5558 5555 5553 5552 5551 5551 5551 5551 5552 5551 5549 5549 5548 5549 5549 5550 5550 5551 5551 5551 5551 5550 5550 5549 5550 5552 5554 5554 5556 5556 5559 5563 5564 5566 5568